This is the latest recevied weather packets stored in our database for station/object K2CCS. If no packets are shown the sender has not sent any weather packets the latest 10 day(s).
| Time | Temp. | Humidity | Pressure | Rain* | Wind** | Luminosity | Snow |
|---|---|---|---|---|---|---|---|
| 1777957535 | 13.33° C | 64% | 1010.8 hPa | 0 mm | - | 0 W/m² | - |
| 1777957233 | 13.33° C | 64% | 1010.9 hPa | 0 mm | - | 0 W/m² | - |
| 1777956929 | 12.78° C | 65% | 1010.8 hPa | 0 mm | - | 0 W/m² | - |
| 1777956626 | 12.78° C | 64% | 1011 hPa | 0 mm | - | 0 W/m² | - |
| 1777956324 | 13.33° C | 64% | 1011 hPa | 0 mm | - | 0 W/m² | - |
| 1777956020 | 13.33° C | 63% | 1010.7 hPa | 0 mm | - | 0 W/m² | - |
| 1777955716 | 13.33° C | 63% | 1011 hPa | 0 mm | - | 0 W/m² | - |
| 1777955413 | 12.78° C | 63% | 1010.9 hPa | 0 mm | - | 0 W/m² | - |
| 1777955109 | 13.33° C | 64% | 1010.8 hPa | 0 mm | - | 0 W/m² | - |
| 1777954807 | 13.33° C | 63% | 1010.8 hPa | 0 mm | - | 0 W/m² | - |
| 1777954503 | 13.33° C | 63% | 1010.8 hPa | 0 mm | - | 0 W/m² | - |
| 1777954201 | 13.89° C | 62% | 1010.8 hPa | 0 mm | - | 0 W/m² | - |
| 1777953898 | 13.89° C | 62% | 1011 hPa | 0 mm | - | 0 W/m² | - |
| 1777953595 | 13.33° C | 63% | 1010.7 hPa | 0 mm | - | 0 W/m² | - |
| 1777953290 | 13.89° C | 62% | 1010.8 hPa | 0 mm | - | 0 W/m² | - |
| 1777952988 | 13.89° C | 61% | 1010.8 hPa | 0 mm | - | 0 W/m² | - |
| 1777952684 | 13.89° C | 61% | 1010.4 hPa | 0 mm | - | 0 W/m² | - |
| 1777952382 | 14.44° C | 61% | 1010.8 hPa | 0 mm | - | 0 W/m² | - |
| 1777952078 | 14.44° C | 60% | 1010.6 hPa | 0 mm | - | 0 W/m² | - |
| 1777951776 | 15° C | 59% | 1010.7 hPa | 0 mm | - | 0 W/m² | - |
| 1777951473 | 15° C | 59% | 1010.7 hPa | 0 mm | - | 0 W/m² | - |
| 1777951170 | 14.44° C | 59% | 1010.7 hPa | 0 mm | - | 0 W/m² | - |
| 1777950867 | 14.44° C | 60% | 1010.5 hPa | 0 mm | - | 0 W/m² | - |
| 1777950564 | 14.44° C | 60% | 1010.7 hPa | 0 mm | - | 0 W/m² | - |
| 1777950259 | 14.44° C | 59% | 1010.7 hPa | 0 mm | - | 0 W/m² | - |
* Rain latest hour (hover to see other rain measurements)
** Current wind speed in m/s (hover to see current wind gust speed)